This is the latest recevied weather packets stored in our database for station/object HP3ICC-22. If no packets are shown the sender has not sent any weather packets the latest 10 day(s).
| Time | Temp. | Humidity | Pressure | Rain* | Wind** | Luminosity | Snow |
|---|---|---|---|---|---|---|---|
| 1777824155 | 12.78° C | 68% | 1015 hPa | 0 mm | - | - | - |
| 1777824094 | 12.78° C | 68% | 1015 hPa | 0 mm | - | - | - |
| 1777822954 | 12.78° C | 68% | 1015 hPa | 0 mm | - | - | - |
| 1777822894 | 12.78° C | 68% | 1015 hPa | 0 mm | - | - | - |
| 1777821754 | 13.33° C | 72% | 1014 hPa | 0 mm | - | - | - |
| 1777821694 | 13.33° C | 72% | 1014 hPa | 0 mm | - | - | - |
| 1777820553 | 12.78° C | 71% | 1015 hPa | 0 mm | - | - | - |
| 1777820493 | 12.78° C | 71% | 1015 hPa | 0 mm | - | - | - |
| 1777819352 | 12.78° C | 70% | 1015 hPa | 0 mm | - | - | - |
| 1777819292 | 12.78° C | 70% | 1015 hPa | 0 mm | - | - | - |
| 1777818152 | 12.78° C | 79% | 1014 hPa | 0 mm | - | - | - |
| 1777818092 | 12.78° C | 79% | 1014 hPa | 0 mm | - | - | - |
| 1777816952 | 12.22° C | 79% | 1015 hPa | 0 mm | - | - | - |
| 1777816891 | 12.22° C | 79% | 1015 hPa | 0 mm | - | - | - |
| 1777815751 | 10.56° C | 88% | 1015 hPa | 0 mm | - | - | - |
| 1777815690 | 10.56° C | 88% | 1015 hPa | 0 mm | - | - | - |
| 1777814550 | 11.67° C | 88% | 1014 hPa | 0 mm | - | - | - |
| 1777814490 | 11.67° C | 88% | 1014 hPa | 0 mm | - | - | - |
| 1777813349 | 11.11° C | 90% | 1014 hPa | 0 mm | - | - | - |
| 1777813289 | 11.11° C | 90% | 1014 hPa | 0 mm | - | - | - |
| 1777812149 | 9.44° C | 82% | 1014 hPa | 0 mm | - | - | - |
| 1777812089 | 9.44° C | 82% | 1014 hPa | 0 mm | - | - | - |
| 1777810948 | 8.89° C | 89% | 1013 hPa | 0 mm | - | - | - |
| 1777810888 | 8.89° C | 89% | 1013 hPa | 0 mm | - | - | - |
| 1777809747 | 8.89° C | 83% | 1014 hPa | 0 mm | - | - | - |
* Rain latest hour (hover to see other rain measurements)
** Current wind speed in m/s (hover to see current wind gust speed)